User: anonymous   Login
Location: Cheyres
(46.8153°N, 6.7877°E)
Time: 22:43:56
(UTC+00:00)
Language:

NOAA 16 DEB - Orbit

View from above orbital plane
View from above orbital plane
View from above satellite
View from above satellite

Ground track
Ground track

The orbit data is extracted from the following two-line orbital elements,

1 42357U 00055QZ  21334.44453152  .00001899  00000-0  96712-3 0  9997
2 42357  98.8389  54.0105 0013648 255.8086 104.1573 14.16942631299276
Epoch (UTC): 30 November 2021 10:40:07
Eccentricity: 0.0013648
inclination: 98.8389°
perigee height: 826 km
apogee height: 845 km
right ascension of ascending node: 54.0105°
argument of perigee: 255.8086°
revolutions per day: 14.16942631
mean anomaly at epoch: 104.1573°
orbit number at epoch: 29927

The dashed part of the orbit path shows where the satellite is in the earth's shadow,  

DLR